Time,TemperatureF,DewpointF,PressureIn,WindDirection,WindDirectionDegrees,WindSpeedMPH,WindSpeedGustMPH,Humidity,HourlyPrecipIn,Conditions,Clouds,dailyrainin,SoftwareType,DateUTC
2013-02-09 00:01:00,20.0,20.0,-100.00,NW,323,10.0,13.0,100,0.00,,,-99.99,,2013-02-09 07:01:00,
2013-02-09 00:11:00,20.0,20.0,-100.00,NW,315,5.0,8.0,100,0.00,,,-99.99,,2013-02-09 07:11:00,
2013-02-09 00:21:00,20.0,20.0,-100.00,NW,320,6.0,8.0,100,0.00,,,-99.99,,2013-02-09 07:21:00,
2013-02-09 00:31:00,20.0,20.0,-100.00,NW,320,6.0,8.0,100,0.00,,,-99.99,,2013-02-09 07:31:00,
2013-02-09 00:42:00,20.0,20.0,-100.00,NW,315,6.0,8.0,100,0.00,,,-99.99,,2013-02-09 07:42:00,
2013-02-09 00:52:00,20.0,20.0,-100.00,NW,315,7.0,10.0,100,0.00,,,-99.99,,2013-02-09 07:52:00,
2013-02-09 01:01:00,20.0,20.0,-100.00,NW,315,7.0,10.0,100,0.00,,,-99.99,,2013-02-09 08:01:00,
2013-02-09 01:11:00,20.0,20.0,-100.00,NW,318,7.0,10.0,100,0.00,,,-99.99,,2013-02-09 08:11:00,
2013-02-09 01:21:00,20.0,20.0,-100.00,NW,312,5.0,7.0,100,0.00,,,-99.99,,2013-02-09 08:21:00,
2013-02-09 01:31:00,20.0,20.0,-100.00,NW,312,5.0,7.0,100,0.00,,,-99.99,,2013-02-09 08:31:00,
2013-02-09 01:41:00,20.0,20.0,-100.00,NW,326,8.0,10.0,100,0.00,,,-99.99,,2013-02-09 08:41:00,
2013-02-09 01:52:00,20.0,20.0,-100.00,NNW,328,9.0,12.0,100,0.00,,,-99.99,,2013-02-09 08:52:00,
2013-02-09 02:02:00,20.0,20.0,-100.00,NNW,328,9.0,12.0,100,0.00,,,-99.99,,2013-02-09 09:02:00,
2013-02-09 02:11:00,20.0,20.0,-100.00,NNW,330,8.0,11.0,100,0.00,,,-99.99,,2013-02-09 09:11:00,
2013-02-09 02:21:00,20.0,20.0,-100.00,NW,322,6.0,8.0,100,0.00,,,-99.99,,2013-02-09 09:21:00,
2013-02-09 02:31:00,20.0,20.0,-100.00,NW,322,6.0,8.0,100,0.00,,,-99.99,,2013-02-09 09:31:00,
2013-02-09 02:41:00,20.0,20.0,-100.00,NW,313,7.0,12.0,100,0.00,,,-99.99,,2013-02-09 09:41:00,
2013-02-09 02:52:00,20.0,20.0,-100.00,NW,311,6.0,8.0,100,0.00,,,-99.99,,2013-02-09 09:52:00,
2013-02-09 03:01:00,20.0,20.0,-100.00,NW,311,6.0,8.0,100,0.00,,,-99.99,,2013-02-09 10:01:00,
2013-02-09 03:11:00,20.0,20.0,-100.00,NW,322,7.0,10.0,100,0.00,,,-99.99,,2013-02-09 10:11:00,
2013-02-09 03:21:00,20.0,20.0,-100.00,NW,322,9.0,13.0,100,0.00,,,-99.99,,2013-02-09 10:21:00,
2013-02-09 03:31:00,20.0,20.0,-100.00,NW,322,9.0,13.0,100,0.00,,,-99.99,,2013-02-09 10:31:00,
2013-02-09 03:41:00,20.0,20.0,-100.00,NW,318,10.0,14.0,100,0.00,,,-99.99,,2013-02-09 10:41:00,
2013-02-09 03:52:00,20.0,20.0,-100.00,NW,318,9.0,11.0,100,0.00,,,-99.99,,2013-02-09 10:52:00,
2013-02-09 04:01:00,20.0,20.0,-100.00,NW,318,9.0,11.0,100,0.00,,,-99.99,,2013-02-09 11:01:00,
2013-02-09 04:11:00,20.0,20.0,-100.00,NW,315,10.0,15.0,100,0.00,,,-99.99,,2013-02-09 11:11:00,
2013-02-09 04:21:00,20.0,20.0,-100.00,NW,319,9.0,12.0,100,0.00,,,-99.99,,2013-02-09 11:21:00,
2013-02-09 04:31:00,20.0,20.0,-100.00,NW,319,9.0,12.0,100,0.00,,,-99.99,,2013-02-09 11:31:00,
2013-02-09 04:41:00,19.0,19.0,-100.00,NW,323,7.0,9.0,99,0.00,,,-99.99,,2013-02-09 11:41:00,
2013-02-09 04:52:00,19.0,19.0,-100.00,NNW,328,9.0,11.0,100,0.00,,,-99.99,,2013-02-09 11:52:00,
2013-02-09 05:02:00,19.0,19.0,-100.00,NNW,328,9.0,11.0,100,0.00,,,-99.99,,2013-02-09 12:02:00,
2013-02-09 05:11:00,19.0,19.0,-100.00,NW,322,6.0,11.0,99,0.00,,,-99.99,,2013-02-09 12:11:00,
2013-02-09 05:21:00,19.0,19.0,-100.00,NW,318,6.0,9.0,99,0.00,,,-99.99,,2013-02-09 12:21:00,
2013-02-09 05:32:00,19.0,19.0,-100.00,NW,318,6.0,9.0,99,0.00,,,-99.99,,2013-02-09 12:32:00,
2013-02-09 05:42:00,19.0,19.0,-100.00,NNW,329,5.0,10.0,99,0.00,,,-99.99,,2013-02-09 12:42:00,
2013-02-09 05:52:00,19.0,19.0,-100.00,NW,318,5.0,9.0,99,0.00,,,-99.99,,2013-02-09 12:52:00,
2013-02-09 06:02:00,19.0,19.0,-100.00,NW,318,5.0,9.0,99,0.00,,,-99.99,,2013-02-09 13:02:00,
2013-02-09 06:11:00,19.0,19.0,-100.00,NW,322,8.0,13.0,99,0.00,,,-99.99,,2013-02-09 13:11:00,
2013-02-09 06:21:00,19.0,19.0,-100.00,NW,325,7.0,9.0,99,0.00,,,-99.99,,2013-02-09 13:21:00,
2013-02-09 06:31:00,19.0,19.0,-100.00,NW,325,7.0,9.0,99,0.00,,,-99.99,,2013-02-09 13:31:00,
2013-02-09 06:42:00,19.0,19.0,-100.00,NW,315,7.0,10.0,99,0.00,,,-99.99,,2013-02-09 13:42:00,
2013-02-09 06:52:00,19.0,19.0,-100.00,NW,319,8.0,11.0,99,0.00,,,-99.99,,2013-02-09 13:52:00,
2013-02-09 07:01:00,19.0,19.0,-100.00,NW,319,8.0,11.0,99,0.00,,,-99.99,,2013-02-09 14:01:00,
2013-02-09 07:11:00,19.0,18.0,-100.00,NW,322,8.0,10.0,99,0.00,,,-99.99,,2013-02-09 14:11:00,
2013-02-09 07:21:00,18.0,18.0,-100.00,NW,316,6.0,9.0,99,0.00,,,-99.99,,2013-02-09 14:21:00,
2013-02-09 07:31:00,18.0,18.0,-100.00,NW,316,6.0,9.0,99,0.00,,,-99.99,,2013-02-09 14:31:00,
2013-02-09 07:41:00,18.0,18.0,-100.00,NW,316,6.0,9.0,99,0.00,,,-99.99,,2013-02-09 14:41:00,
2013-02-09 07:52:00,18.0,18.0,-100.00,NW,320,6.0,9.0,99,0.00,,,-99.99,,2013-02-09 14:52:00,
2013-02-09 08:01:00,18.0,18.0,-100.00,NW,320,6.0,9.0,99,0.00,,,-99.99,,2013-02-09 15:01:00,
2013-02-09 08:11:00,18.0,18.0,-100.00,NW,318,5.0,6.0,99,0.00,,,-99.99,,2013-02-09 15:11:00,
2013-02-09 08:21:00,18.0,18.0,-100.00,NW,315,4.0,7.0,99,0.00,,,-99.99,,2013-02-09 15:21:00,
2013-02-09 08:30:00,18.0,17.0,-100.00,NNW,328,6.0,10.0,98,0.00,,,-99.99,,2013-02-09 15:30:00,
2013-02-09 08:31:00,18.0,18.0,-100.00,NW,315,4.0,7.0,99,0.00,,,-99.99,,2013-02-09 15:31:00,
2013-02-09 08:41:00,18.0,18.0,-100.00,NW,320,6.0,10.0,99,0.00,,,-99.99,,2013-02-09 15:41:00,
2013-02-09 08:52:00,18.0,18.0,-100.00,NW,323,6.0,10.0,99,0.00,,,-99.99,,2013-02-09 15:52:00,
2013-02-09 09:01:00,18.0,18.0,-100.00,NW,323,6.0,10.0,99,0.00,,,-99.99,,2013-02-09 16:01:00,
2013-02-09 09:11:00,18.0,17.0,-100.00,NNW,328,6.0,10.0,98,0.00,,,-99.99,,2013-02-09 16:11:00,
2013-02-09 09:22:00,18.0,17.0,-100.00,NNW,328,6.0,10.0,98,0.00,,,-99.99,,2013-02-09 16:22:00,
2013-02-09 09:42:00,17.0,17.0,-100.00,NW,326,7.0,10.0,98,0.00,,,-99.99,,2013-02-09 16:42:00,
2013-02-09 09:52:00,18.0,17.0,-100.00,NW,311,5.0,7.0,99,0.00,,,-99.99,,2013-02-09 16:52:00,
2013-02-09 10:01:00,18.0,17.0,-100.00,NW,311,5.0,7.0,99,0.00,,,-99.99,,2013-02-09 17:01:00,
2013-02-09 10:11:00,18.0,17.0,-100.00,NW,316,6.0,9.0,98,0.00,,,-99.99,,2013-02-09 17:11:00,
2013-02-09 10:21:00,18.0,18.0,-100.00,NW,326,5.0,8.0,99,0.00,,,-99.99,,2013-02-09 17:21:00,
2013-02-09 10:32:00,18.0,18.0,-100.00,NW,326,5.0,8.0,99,0.00,,,-99.99,,2013-02-09 17:32:00,
2013-02-09 10:41:00,18.0,18.0,-100.00,NW,320,4.0,7.0,99,0.00,,,-99.99,,2013-02-09 17:41:00,
2013-02-09 10:52:00,18.0,18.0,-100.00,NNW,333,5.0,10.0,98,0.00,,,-99.99,,2013-02-09 17:52:00,
2013-02-09 11:01:00,18.0,18.0,-100.00,NNW,333,5.0,10.0,98,0.00,,,-99.99,,2013-02-09 18:01:00,
2013-02-09 11:11:00,18.0,18.0,-100.00,NW,313,6.0,9.0,99,0.04,,,-99.99,,2013-02-09 18:11:00,
2013-02-09 11:23:00,18.0,18.0,-100.00,NW,313,6.0,9.0,99,0.04,,,-99.99,,2013-02-09 18:23:00,
2013-02-09 11:31:00,18.0,18.0,-100.00,NW,313,6.0,9.0,99,0.04,,,-99.99,,2013-02-09 18:31:00,
2013-02-09 11:41:00,18.0,18.0,-100.00,NW,311,3.0,6.0,99,0.00,,,-99.99,,2013-02-09 18:41:00,
2013-02-09 11:52:00,19.0,18.0,-100.00,NW,323,7.0,9.0,98,0.00,,,-99.99,,2013-02-09 18:52:00,
2013-02-09 12:01:00,19.0,19.0,-100.00,NW,325,5.0,7.0,99,0.00,,,-99.99,,2013-02-09 19:01:00,
2013-02-09 12:11:00,19.0,19.0,-100.00,NW,325,5.0,7.0,99,0.00,,,-99.99,,2013-02-09 19:11:00,
2013-02-09 12:22:00,19.0,19.0,-100.00,NNW,329,6.0,8.0,99,0.00,,,-99.99,,2013-02-09 19:22:00,
2013-02-09 12:31:00,19.0,19.0,-100.00,NNW,329,6.0,8.0,99,0.00,,,-99.99,,2013-02-09 19:31:00,
2013-02-09 12:41:00,19.0,19.0,-100.00,NW,325,6.0,10.0,99,0.00,,,-99.99,,2013-02-09 19:41:00,
2013-02-09 12:52:00,21.0,20.0,-100.00,NW,320,6.0,10.0,96,0.00,,,-99.99,,2013-02-09 19:52:00,
2013-02-09 13:01:00,21.0,20.0,-100.00,NW,320,6.0,10.0,96,0.00,,,-99.99,,2013-02-09 20:01:00,
2013-02-09 13:11:00,20.0,19.0,-100.00,NNW,335,9.0,13.0,98,0.00,,,-99.99,,2013-02-09 20:11:00,
2013-02-09 13:21:00,21.0,20.0,-100.00,NW,313,9.0,13.0,98,0.00,,,-99.99,,2013-02-09 20:21:00,
2013-02-09 13:31:00,21.0,20.0,-100.00,NW,313,9.0,13.0,98,0.00,,,-99.99,,2013-02-09 20:31:00,
2013-02-09 13:41:00,21.0,20.0,-100.00,NW,318,9.0,12.0,96,0.00,,,-99.99,,2013-02-09 20:41:00,
2013-02-09 13:52:00,20.0,19.0,-100.00,NNW,328,7.0,9.0,96,0.00,,,-99.99,,2013-02-09 20:52:00,
2013-02-09 14:01:00,20.0,19.0,-100.00,NNW,328,7.0,9.0,96,0.00,,,-99.99,,2013-02-09 21:01:00,
2013-02-09 14:11:00,21.0,19.0,-100.00,NW,323,6.0,9.0,92,0.00,,,-99.99,,2013-02-09 21:11:00,
2013-02-09 14:21:00,21.0,19.0,-100.00,NNW,332,6.0,8.0,92,0.00,,,-99.99,,2013-02-09 21:21:00,
2013-02-09 14:31:00,21.0,19.0,-100.00,NNW,332,6.0,8.0,92,0.00,,,-99.99,,2013-02-09 21:31:00,
2013-02-09 14:41:00,21.0,19.0,-100.00,NW,323,6.0,9.0,90,0.00,,,-99.99,,2013-02-09 21:41:00,
2013-02-09 14:52:00,21.0,18.0,-100.00,NW,323,5.0,8.0,87,0.00,,,-99.99,,2013-02-09 21:52:00,
2013-02-09 15:01:00,21.0,18.0,-100.00,NW,323,5.0,8.0,87,0.00,,,-99.99,,2013-02-09 22:01:00,
2013-02-09 15:11:00,22.0,18.0,-100.00,NNW,333,6.0,9.0,84,0.00,,,-99.99,,2013-02-09 22:11:00,
2013-02-09 15:21:00,21.0,17.0,-100.00,NW,311,5.0,7.0,84,0.00,,,-99.99,,2013-02-09 22:21:00,
2013-02-09 15:31:00,21.0,17.0,-100.00,NW,311,5.0,7.0,84,0.00,,,-99.99,,2013-02-09 22:31:00,
2013-02-09 15:41:00,21.0,17.0,-100.00,NNW,329,8.0,10.0,84,0.00,,,-99.99,,2013-02-09 22:41:00,
2013-02-09 15:52:00,21.0,17.0,-100.00,NNW,332,6.0,9.0,85,0.00,,,-99.99,,2013-02-09 22:52:00,
2013-02-09 16:01:00,21.0,17.0,-100.00,NNW,332,6.0,9.0,85,0.00,,,-99.99,,2013-02-09 23:01:00,
2013-02-09 16:11:00,20.0,16.0,-100.00,NW,316,6.0,10.0,83,0.00,,,-99.99,,2013-02-09 23:11:00,
2013-02-09 16:21:00,20.0,16.0,-100.00,NW,316,7.0,11.0,85,0.00,,,-99.99,,2013-02-09 23:21:00,
2013-02-09 16:30:00,19.0,18.0,-100.00,NW,322,7.0,11.0,97,0.04,,,-99.99,,2013-02-09 23:30:00,
2013-02-09 16:31:00,20.0,16.0,-100.00,NW,316,7.0,11.0,85,0.00,,,-99.99,,2013-02-09 23:31:00,
2013-02-09 16:41:00,19.0,17.0,-100.00,NW,308,7.0,12.0,91,0.00,,,-99.99,,2013-02-09 23:41:00,
2013-02-09 16:52:00,19.0,18.0,-100.00,NW,325,8.0,13.0,95,0.04,,,-99.99,,2013-02-09 23:52:00,
2013-02-09 17:02:00,19.0,18.0,-100.00,NW,325,8.0,13.0,95,0.04,,,-99.99,,2013-02-10 00:02:00,
2013-02-09 17:11:00,19.0,18.0,-100.00,NW,322,7.0,11.0,97,0.04,,,-99.99,,2013-02-10 00:11:00,
2013-02-09 17:21:00,19.0,18.0,-100.00,NW,322,7.0,11.0,97,0.04,,,-99.99,,2013-02-10 00:21:00,
2013-02-09 17:42:00,19.0,18.0,-100.00,NW,320,7.0,10.0,98,0.00,,,-99.99,,2013-02-10 00:42:00,
2013-02-09 17:52:00,18.0,18.0,-100.00,NW,318,7.0,10.0,98,0.04,,,-99.99,,2013-02-10 00:52:00,
2013-02-09 18:01:00,18.0,18.0,-100.00,NW,318,7.0,10.0,98,0.04,,,-99.99,,2013-02-10 01:01:00,
2013-02-09 18:11:00,19.0,18.0,-100.00,NW,325,5.0,6.0,99,0.04,,,-99.99,,2013-02-10 01:11:00,
2013-02-09 18:21:00,18.0,18.0,-100.00,NNW,330,6.0,8.0,99,0.12,,,-99.99,,2013-02-10 01:21:00,
2013-02-09 18:31:00,18.0,18.0,-100.00,NNW,330,6.0,8.0,99,0.12,,,-99.99,,2013-02-10 01:31:00,
2013-02-09 18:41:00,18.0,18.0,-100.00,NW,313,6.0,8.0,99,0.16,,,-99.99,,2013-02-10 01:41:00,
2013-02-09 18:52:00,18.0,18.0,-100.00,NW,320,5.0,7.0,99,0.08,,,-99.99,,2013-02-10 01:52:00,
2013-02-09 19:01:00,18.0,18.0,-100.00,NW,320,5.0,7.0,99,0.08,,,-99.99,,2013-02-10 02:01:00,
2013-02-09 19:11:00,18.0,18.0,-100.00,NW,312,8.0,11.0,99,0.08,,,-99.99,,2013-02-10 02:11:00,
2013-02-09 19:22:00,18.0,18.0,-100.00,NW,322,7.0,11.0,99,0.00,,,-99.99,,2013-02-10 02:22:00,
2013-02-09 19:31:00,18.0,18.0,-100.00,NW,322,7.0,11.0,99,0.00,,,-99.99,,2013-02-10 02:31:00,
2013-02-09 19:41:00,18.0,18.0,-100.00,NW,319,7.0,10.0,99,0.00,,,-99.99,,2013-02-10 02:41:00,
2013-02-09 19:52:00,18.0,18.0,-100.00,NNW,333,6.0,9.0,99,0.00,,,-99.99,,2013-02-10 02:52:00,
2013-02-09 20:01:00,18.0,18.0,-100.00,NNW,333,6.0,9.0,99,0.00,,,-99.99,,2013-02-10 03:01:00,
2013-02-09 20:11:00,18.0,18.0,-100.00,NW,312,6.0,9.0,99,0.00,,,-99.99,,2013-02-10 03:11:00,
2013-02-09 20:21:00,18.0,18.0,-100.00,NW,318,7.0,12.0,99,0.08,,,-99.99,,2013-02-10 03:21:00,
2013-02-09 20:32:00,18.0,18.0,-100.00,NW,318,7.0,12.0,99,0.08,,,-99.99,,2013-02-10 03:32:00,
2013-02-09 20:41:00,18.0,18.0,-100.00,NW,309,8.0,12.0,99,0.00,,,-99.99,,2013-02-10 03:41:00,
2013-02-09 20:52:00,18.0,18.0,-100.00,NW,322,12.0,19.0,99,0.08,,,-99.99,,2013-02-10 03:52:00,
2013-02-09 21:01:00,18.0,18.0,-100.00,NW,322,12.0,19.0,99,0.08,,,-99.99,,2013-02-10 04:01:00,
2013-02-09 21:11:00,18.0,18.0,-100.00,NW,320,11.0,17.0,99,0.08,,,-99.99,,2013-02-10 04:11:00,
2013-02-09 21:21:00,18.0,18.0,-100.00,NW,326,12.0,19.0,99,0.16,,,-99.99,,2013-02-10 04:21:00,
2013-02-09 21:30:00,18.0,18.0,-100.00,NW,323,10.0,14.0,99,0.16,,,-99.99,,2013-02-10 04:30:00,
2013-02-09 21:32:00,18.0,18.0,-100.00,NW,326,12.0,19.0,99,0.16,,,-99.99,,2013-02-10 04:32:00,
2013-02-09 21:41:00,18.0,18.0,-100.00,NW,322,9.0,11.0,99,0.04,,,-99.99,,2013-02-10 04:41:00,
2013-02-09 21:52:00,18.0,18.0,-100.00,NNW,329,11.0,13.0,99,0.08,,,-99.99,,2013-02-10 04:52:00,
2013-02-09 22:01:00,18.0,18.0,-100.00,NW,323,10.0,14.0,99,0.16,,,-99.99,,2013-02-10 05:01:00,
2013-02-09 22:11:00,18.0,18.0,-100.00,NW,323,10.0,14.0,99,0.16,,,-99.99,,2013-02-10 05:11:00,
2013-02-09 22:22:00,18.0,18.0,-100.00,NW,323,10.0,14.0,99,0.16,,,-99.99,,2013-02-10 05:22:00,
2013-02-09 22:42:00,18.0,18.0,-100.00,NW,320,13.0,19.0,99,0.20,,,-99.99,,2013-02-10 05:42:00,
2013-02-09 22:52:00,18.0,18.0,-100.00,NW,325,13.0,17.0,99,0.08,,,-99.99,,2013-02-10 05:52:00,
2013-02-09 23:01:00,18.0,18.0,-100.00,NW,325,13.0,17.0,99,0.08,,,-99.99,,2013-02-10 06:01:00,
2013-02-09 23:11:00,18.0,18.0,-100.00,NW,315,8.0,12.0,99,0.08,,,-99.99,,2013-02-10 06:11:00,
2013-02-09 23:21:00,18.0,17.0,-100.00,NW,322,14.0,18.0,99,0.16,,,-99.99,,2013-02-10 06:21:00,
2013-02-09 23:32:00,18.0,17.0,-100.00,NW,322,14.0,18.0,99,0.16,,,-99.99,,2013-02-10 06:32:00,
2013-02-09 23:42:00,18.0,17.0,-100.00,NW,313,11.0,15.0,99,0.04,,,-99.99,,2013-02-10 06:42:00,
2013-02-09 23:52:00,18.0,17.0,-100.00,NW,318,12.0,17.0,99,0.12,,,-99.99,,2013-02-10 06:52:00,